Weather History for KPBG - March, 2014

Change the Weather History Date:

Thursday, March 27, 2014

  Actual Average Record
Temperature  
Mean Temperature 24 °F 34 °F  
Max Temperature 35 °F 44 °F 66 °F (1976)
Min Temperature 12 °F 24 °F 6 °F (1975)
Degree Days  
Heating Degree Days 41 31  
Month to date heating degree days 1230 950  
Since 1 July heating degree days 7073 6562  
Cooling Degree Days 0 0  
Month to date cooling degree days 0 0  
Year to date cooling degree days 0 0  
Moisture  
Dew Point 6 °F    
Average Humidity 50    
Maximum Humidity 59    
Minimum Humidity 41    
Precipitation  
Precipitation 0.00 in - 1.10 in (1978)
Month to date precipitation 0.16  
Year to date precipitation 1.42  
Sea Level Pressure  
Sea Level Pressure 30.22 in    
Wind  
Wind Speed 8 mph (South)    
Max Wind Speed 18 mph    
Max Gust Speed 24 mph    
Visibility 10 miles    
Events      
T = Trace of Precipitation, MM = Missing Value Source: NWS Daily Summary

Daily Weather History Graph

Daily Weather History Graph

Search for Another Location

Airport or City:

Trip Planner

Search our weather history database for the weather conditions in past years. The results will help you decide how hot, cold, wet, or windy it might be!

Date:

Astronomy

Mar. 27, 2014 Rise Set
Actual Time 6:44 AM EDT 7:15 PM EDT
Civil Twilight 6:14 AM EDT 7:44 PM EDT
Nautical Twilight 5:40 AM EDT 8:19 PM EDT
Astronomical Twilight 5:04 AM EDT 8:55 PM EDT
Moon 4:41 AM EDT 3:52 PM EDT
Length of Visible Light 13h 29m
Length of Day
12h 31m
Waning Crescent, 13% of the Moon is Illuminated
Mar 27
Waning Crescent
Mar 30
New
Apr 7
First Quarter
Apr 15
Full
Apr 22
Last Quarter

Hourly Weather History & Observations

Time (EDT) Temp. Windchill Dew Point Humidity Pressure Visibility Wind Dir Wind Speed Gust Speed Precip Events Conditions
12:53 AM 16.0 °F 7.4 °F -2.0 °F 45% 30.17 in 10.0 mi NW 5.8 mph - N/A   Clear
1:53 AM 17.1 °F 5.8 °F -2.9 °F 41% 30.20 in 10.0 mi NW 9.2 mph - N/A   Clear
2:53 AM 17.1 °F 5.8 °F -2.9 °F 41% 30.22 in 10.0 mi NW 9.2 mph - N/A   Clear
3:53 AM 16.0 °F - -4.0 °F 41% 30.23 in 10.0 mi Calm Calm - N/A   Clear
4:53 AM 12.9 °F 6.9 °F -2.9 °F 49% 30.26 in 10.0 mi WSW 3.5 mph - N/A   Clear
5:53 AM 12.9 °F 6.9 °F -0.9 °F 54% 30.28 in 10.0 mi West 3.5 mph - N/A   Clear
6:53 AM 12.9 °F - -2.0 °F 51% 30.29 in 10.0 mi Calm Calm - N/A   Clear
7:53 AM 17.1 °F 10.0 °F -0.9 °F 45% 30.31 in 10.0 mi SW 4.6 mph - N/A   Clear
8:53 AM 19.9 °F 14.9 °F -0.9 °F 40% 30.32 in 10.0 mi SW 3.5 mph - N/A   Clear
9:53 AM 21.9 °F - 1.9 °F 42% 30.30 in 10.0 mi North - - N/A   Clear
10:53 AM 21.9 °F 9.8 °F 6.1 °F 51% 30.30 in 10.0 mi SE 12.7 mph - N/A   Clear
11:53 AM 24.1 °F 11.0 °F 7.0 °F 48% 30.28 in 10.0 mi SE 16.1 mph - N/A   Scattered Clouds
12:53 PM 26.1 °F 13.6 °F 7.0 °F 44% 30.26 in 10.0 mi SE 16.1 mph - N/A   Overcast
1:53 PM 28.0 °F 16.1 °F 9.0 °F 45% 30.24 in 10.0 mi SE 16.1 mph - N/A   Overcast
2:53 PM 30.0 °F 19.5 °F 10.9 °F 45% 30.22 in 10.0 mi SE 13.8 mph - N/A   Mostly Cloudy
3:53 PM 30.9 °F 22.2 °F 12.0 °F 46% 30.21 in 10.0 mi SE 10.4 mph - N/A   Overcast
4:53 PM 32.0 °F 24.2 °F 12.9 °F 45% 30.21 in 10.0 mi SE 9.2 mph - N/A   Overcast
5:53 PM 30.9 °F 21.2 °F 18.0 °F 59% 30.17 in 10.0 mi SSE 12.7 mph - N/A   Overcast
6:53 PM 32.0 °F 22.5 °F 12.9 °F 45% 30.15 in 10.0 mi South 12.7 mph - N/A   Overcast
7:53 PM 32.0 °F 25.6 °F 12.0 °F 44% 30.14 in 10.0 mi South 6.9 mph - N/A   Mostly Cloudy
8:53 PM 33.1 °F 26.9 °F 12.9 °F 43% 30.14 in 10.0 mi SSW 6.9 mph - N/A   Overcast
9:53 PM 34.0 °F 28.8 °F 12.0 °F 40% 30.12 in 10.0 mi SSW 5.8 mph - N/A   Overcast
10:53 PM 34.0 °F - 14.0 °F 44% 30.12 in 10.0 mi Calm Calm - N/A   Overcast
11:53 PM 32.0 °F 26.4 °F 19.0 °F 59% 30.09 in 10.0 mi SSE 5.8 mph - N/A   Overcast